Hourly Weather Aqtobe

Today, 22 September, Tuesday

Time Temperature Precipitation Wind Pressure Humidity
00:00 +5°C° 0.4 mm 6 mps 741 mmHg 78%
01:00 +5°C° 0.4 mm 7 mps 741 mmHg 82%
02:00 +6°C° 0.1 mm 7 mps 741 mmHg 79%
03:00 +6°C° 0.1 mm 7 mps 740 mmHg 75%
04:00 +6°C° 0 mm 7 mps 740 mmHg 71%
05:00 +6°C° 0 mm 7 mps 740 mmHg 70%
06:00 +6°C° 0 mm 7 mps 740 mmHg 70%
07:00 +6°C° 0 mm 7 mps 740 mmHg 69%
08:00 +8°C° 0 mm 7 mps 740 mmHg 65%
09:00 +10°C° 0 mm 8 mps 741 mmHg 62%
10:00 +11°C° 0 mm 8 mps 741 mmHg 58%
11:00 +11°C° 0 mm 8 mps 741 mmHg 60%
12:00 +11°C° 0 mm 8 mps 741 mmHg 62%
13:00 +11°C° 0 mm 7 mps 741 mmHg 64%
14:00 +12°C° 0.1 mm 7 mps 741 mmHg 62%
15:00 +12°C° 0.1 mm 7 mps 742 mmHg 60%
16:00 +14°C° 0.1 mm 6 mps 742 mmHg 59%
17:00 +13°C° 0 mm 5 mps 742 mmHg 62%
18:00 +13°C° 0 mm 5 mps 742 mmHg 65%
19:00 +12°C° 0 mm 4 mps 742 mmHg 68%
20:00 +12°C° 0 mm 4 mps 742 mmHg 71%
21:00 +11°C° 0 mm 4 mps 742 mmHg 73%
22:00 +11°C° 0 mm 4 mps 742 mmHg 75%
23:00 +10°C° 0 mm 5 mps 742 mmHg 76%

Tomorrow, 23 September, Wednesday

Time Temperature Precipitation Wind Pressure Humidity
00:00 +10°C° 0 mm 5 mps 742 mmHg 76%
01:00 +10°C° 0 mm 6 mps 741 mmHg 77%
02:00 +10°C° 0 mm 6 mps 741 mmHg 77%
03:00 +10°C° 0 mm 6 mps 741 mmHg 78%
04:00 +9°C° 0 mm 7 mps 740 mmHg 79%
05:00 +10°C° 0 mm 7 mps 740 mmHg 77%
06:00 +10°C° 0 mm 8 mps 740 mmHg 76%
07:00 +10°C° 0 mm 8 mps 740 mmHg 74%
08:00 +12°C° 0 mm 9 mps 739 mmHg 68%
09:00 +14°C° 0 mm 11 mps 739 mmHg 63%
10:00 +15°C° 0 mm 12 mps 739 mmHg 57%
11:00 +17°C° 0 mm 12 mps 739 mmHg 54%
12:00 +18°C° 0 mm 12 mps 739 mmHg 51%
13:00 +19°C° 0 mm 12 mps 738 mmHg 47%
14:00 +19°C° 0 mm 11 mps 739 mmHg 47%
15:00 +19°C° 0 mm 10 mps 739 mmHg 47%
16:00 +19°C° 0 mm 10 mps 739 mmHg 47%
17:00 +18°C° 0 mm 8 mps 739 mmHg 53%
18:00 +16°C° 0 mm 7 mps 740 mmHg 58%
19:00 +15°C° 0 mm 5 mps 740 mmHg 63%
20:00 +14°C° 0 mm 5 mps 741 mmHg 65%
21:00 +13°C° 0 mm 4 mps 741 mmHg 66%
22:00 +11°C° 0 mm 4 mps 742 mmHg 68%
23:00 +11°C° 0 mm 4 mps 742 mmHg 71%

Day after tomorrow, 24 September, Thursday

Time Temperature Precipitation Wind Pressure Humidity
00:00 +10°C° 0 mm 3 mps 742 mmHg 74%
01:00 +10°C° 0 mm 3 mps 743 mmHg 76%
02:00 +9°C° 0 mm 2 mps 743 mmHg 77%
03:00 +8°C° 0 mm 2 mps 744 mmHg 78%
04:00 +8°C° 0 mm 2 mps 745 mmHg 78%
05:00 +8°C° 0 mm 2 mps 745 mmHg 76%
06:00 +8°C° 0 mm 2 mps 745 mmHg 74%
07:00 +8°C° 0 mm 2 mps 746 mmHg 71%
08:00 +9°C° 0 mm 2 mps 746 mmHg 63%
09:00 +12°C° 0 mm 2 mps 747 mmHg 54%
10:00 +12°C° 0 mm 3 mps 747 mmHg 46%
11:00 +13°C° 0 mm 3 mps 747 mmHg 42%
12:00 +14°C° 0 mm 3 mps 747 mmHg 38%
13:00 +16°C° 0 mm 2 mps 747 mmHg 34%
14:00 +17°C° 0 mm 2 mps 748 mmHg 33%
15:00 +17°C° 0 mm 2 mps 748 mmHg 32%
16:00 +17°C° 0 mm 2 mps 748 mmHg 30%
17:00 +16°C° 0 mm 2 mps 748 mmHg 34%
18:00 +15°C° 0 mm 2 mps 748 mmHg 37%
19:00 +14°C° 0 mm 2 mps 748 mmHg 41%
20:00 +13°C° 0 mm 2 mps 748 mmHg 42%
21:00 +13°C° 0 mm 2 mps 748 mmHg 44%
22:00 +12°C° 0 mm 2 mps 749 mmHg 45%
23:00 +12°C° 0 mm 2 mps 749 mmHg 45%

25 September, Friday

Time Temperature Precipitation Wind Pressure Humidity
00:00 +12°C° 0 mm 2 mps 749 mmHg 46%
01:00 +10°C° 0 mm 2 mps 749 mmHg 46%
02:00 +10°C° 0 mm 2 mps 749 mmHg 47%
03:00 +10°C° 0 mm 2 mps 749 mmHg 48%
04:00 +9°C° 0 mm 2 mps 750 mmHg 49%
05:00 +9°C° 0 mm 3 mps 750 mmHg 50%
06:00 +9°C° 0 mm 3 mps 750 mmHg 51%
07:00 +9°C° 0 mm 3 mps 750 mmHg 52%
08:00 +11°C° 0 mm 3 mps 750 mmHg 47%
09:00 +12°C° 0 mm 4 mps 751 mmHg 43%
10:00 +14°C° 0 mm 4 mps 751 mmHg 39%
11:00 +15°C° 0 mm 4 mps 751 mmHg 35%
12:00 +17°C° 0 mm 4 mps 751 mmHg 32%
13:00 +18°C° 0 mm 4 mps 751 mmHg 29%
14:00 +18°C° 0 mm 4 mps 751 mmHg 28%
15:00 +18°C° 0 mm 4 mps 751 mmHg 28%
16:00 +18°C° 0 mm 4 mps 751 mmHg 27%
17:00 +17°C° 0 mm 4 mps 751 mmHg 30%
18:00 +14°C° 0 mm 4 mps 751 mmHg 33%
19:00 +13°C° 0 mm 4 mps 751 mmHg 37%
20:00 +12°C° 0 mm 4 mps 751 mmHg 40%
21:00 +12°C° 0 mm 4 mps 751 mmHg 43%
22:00 +11°C° 0 mm 4 mps 751 mmHg 46%
23:00 +10°C° 0 mm 3 mps 751 mmHg 48%

26 September, Saturday

Time Temperature Precipitation Wind Pressure Humidity
00:00 +10°C° 0 mm 3 mps 751 mmHg 50%
01:00 +9°C° 0 mm 3 mps 751 mmHg 52%
02:00 +9°C° 0 mm 3 mps 752 mmHg 53%
03:00 +9°C° 0 mm 3 mps 752 mmHg 54%
04:00 +8°C° 0 mm 3 mps 752 mmHg 56%
05:00 +8°C° 0 mm 3 mps 752 mmHg 56%
06:00 +8°C° 0 mm 3 mps 752 mmHg 57%
07:00 +8°C° 0 mm 3 mps 752 mmHg 58%
08:00 +10°C° 0 mm 3 mps 752 mmHg 52%
09:00 +12°C° 0 mm 4 mps 753 mmHg 46%
10:00 +13°C° 0 mm 4 mps 753 mmHg 40%
11:00 +14°C° 0 mm 4 mps 753 mmHg 36%
12:00 +15°C° 0 mm 5 mps 752 mmHg 33%
13:00 +16°C° 0 mm 5 mps 752 mmHg 29%
14:00 +16°C° 0 mm 5 mps 752 mmHg 29%
15:00 +17°C° 0 mm 5 mps 752 mmHg 28%
16:00 +17°C° 0 mm 5 mps 752 mmHg 28%
17:00 +15°C° 0 mm 4 mps 752 mmHg 31%
18:00 +14°C° 0 mm 4 mps 752 mmHg 34%
19:00 +13°C° 0 mm 3 mps 752 mmHg 38%
20:00 +12°C° 0 mm 3 mps 752 mmHg 40%
21:00 +12°C° 0 mm 3 mps 752 mmHg 42%
22:00 +11°C° 0 mm 3 mps 752 mmHg 45%
23:00 +10°C° 0 mm 3 mps 752 mmHg 46%

27 September, Sunday

Time Temperature Precipitation Wind Pressure Humidity
00:00 +10°C° 0 mm 3 mps 753 mmHg 48%
01:00 +10°C° 0 mm 3 mps 753 mmHg 49%
02:00 +9°C° 0 mm 3 mps 753 mmHg 51%
03:00 +9°C° 0 mm 3 mps 753 mmHg 52%
04:00 +8°C° 0 mm 3 mps 753 mmHg 53%
05:00 +8°C° 0 mm 3 mps 753 mmHg 54%
06:00 +8°C° 0 mm 3 mps 753 mmHg 55%
07:00 +8°C° 0 mm 3 mps 754 mmHg 55%
08:00 +10°C° 0 mm 4 mps 754 mmHg 50%
09:00 +12°C° 0 mm 4 mps 754 mmHg 45%
10:00 +14°C° 0 mm 5 mps 754 mmHg 39%
11:00 +15°C° 0 mm 5 mps 754 mmHg 37%
12:00 +16°C° 0 mm 5 mps 754 mmHg 35%
13:00 +17°C° 0 mm 5 mps 754 mmHg 32%
14:00 +17°C° 0 mm 5 mps 753 mmHg 33%
15:00 +17°C° 0 mm 5 mps 753 mmHg 33%
16:00 +17°C° 0 mm 5 mps 753 mmHg 33%
17:00 +15°C° 0 mm 4 mps 753 mmHg 37%
18:00 +14°C° 0 mm 4 mps 753 mmHg 40%
19:00 +13°C° 0 mm 3 mps 753 mmHg 43%
20:00 +12°C° 0 mm 3 mps 753 mmHg 44%
21:00 +11°C° 0 mm 3 mps 753 mmHg 44%
22:00 +10°C° 0 mm 3 mps 753 mmHg 45%
23:00 +10°C° 0 mm 3 mps 753 mmHg 45%
Show more